FW0637 Weather Reports


Display with metric or nautical units.
time (UTC)temp
F
wind
direction
speed
MPH
gust
MPH
rain 1hr
in
rain 24hr
in
rain mn
in
humidity
%
barometer
mb
20190527050027 74 157 9.0 18.0 0.00 0.00 0.00 87 1012.7
20190527044508 74 151 7.0 15.0 0.00 0.00 0.00 85 1012.9
20190527043038 75 168 7.0 16.0 0.00 0.00 0.00 84 1013.2
20190527041506 75 137 6.0 15.0 0.00 0.00 0.00 83 1013.2
20190527040045 75 146 5.0 10.0 0.00 0.00 0.00 82 1013.2
20190527034516 76 157 6.0 11.0 0.00 0.00 0.00 81 1013.4
20190527033007 76 171 4.0 10.0 0.00 0.00 0.00 80 1013.4
20190527031508 77 184 6.0 11.0 0.00 0.00 0.00 78 1013.6
20190527030007 77 107 5.0 10.0 0.00 0.00 0.00 76 1013.2
20190527024503 78 167 5.0 9.0 0.00 0.00 0.00 73 1013.2
20190527023002 78 175 3.0 8.0 0.00 0.00 0.00 70 1013.3
20190527021502 79 156 3.0 5.0 0.00 0.00 0.00 68 1013.1
20190527020004 79 157 2.0 7.0 0.00 0.00 0.00 66 1012.9
20190527014630 80 155 3.0 6.0 0.00 0.00 0.00 65 1012.7
20190527013245 80 128 3.0 7.0 0.00 0.00 0.00 64 1012.6
20190527011649 81 155 4.0 8.0 0.00 0.00 0.00 63 1012.7
20190527010152 82 147 4.0 9.0 0.00 0.00 0.00 62 1012.6
20190527004700 82 145 5.0 9.0 0.00 0.00 0.00 60 1012.4
20190527003243 83 155 4.0 12.0 0.00 0.00 0.00 59 1012.3
20190527001656 84 165 5.0 10.0 0.00 0.00 0.00 58 1012.3
20190527000117 85 165 6.0 11.0 0.00 0.00 0.00 58 1012.2
20190526234709 85 171 7.0 15.0 0.00 0.00 0.00 58 1012.1
20190526233157 85 130 3.0 12.0 0.00 0.00 0.00 59 1012.1
20190526231713 86 138 7.0 15.0 0.00 0.00 0.00 58 1012.2
20190526230129 87 130 5.0 16.0 0.00 0.00 0.00 59 1012.1
20190526224822 87 136 8.0 15.0 0.00 0.00 0.00 57 1012.2
20190526223222 87 119 8.0 16.0 0.00 0.00 0.00 57 1012.2
20190526221716 87 120 5.0 13.0 0.00 0.00 0.00 58 1012.4
20190526220224 87 134 8.0 16.0 0.00 0.00 0.00 57 1012.6
20190526214609 87 168 8.0 16.0 0.00 0.00 0.00 59 1012.7
20190526213125 87 139 5.0 15.0 0.00 0.00 0.00 59 1013.0
20190526211558 87 163 5.0 13.0 0.00 0.00 0.00 60 1013.2
20190526210116 88 125 8.0 15.0 0.00 0.00 0.00 58 1013.3
20190526204620 87 225 6.0 16.0 0.00 0.00 0.00 60 1013.4
20190526203102 86 90 6.0 17.0 0.00 0.00 0.00 60 1013.5
20190526201543 86 162 7.0 14.0 0.00 0.00 0.00 62 1013.7
20190526200045 86 142 7.0 14.0 0.00 0.00 0.00 65 1013.8
20190526194529 86 148 9.0 20.0 0.00 0.00 0.00 61 1013.7
20190526193032 86 156 8.0 19.0 0.00 0.00 0.00 62 1013.9
20190526191600 87 128 6.0 16.0 0.00 0.00 0.00 64 1014.0
20190526190018 86 149 4.0 13.0 0.00 0.00 0.00 65 1014.2
20190526184543 86 214 6.0 15.0 0.00 0.00 0.00 67 1014.5
20190526183024 85 177 4.0 21.0 0.00 0.00 0.00 67 1014.5
20190526181513 85 145 8.0 16.0 0.00 0.00 0.00 66 1014.6
20190526180013 84 111 5.0 19.0 0.00 0.00 0.00 68 1014.8
20190526174511 84 184 9.0 15.0 0.00 0.00 0.00 67 1015.1
20190526173022 84 166 9.0 15.0 0.00 0.00 0.00 68 1015.1
20190526171531 84 133 9.0 17.0 0.00 0.00 0.00 69 1015.2
20190526170009 83 125 7.0 15.0 0.00 0.00 0.00 70 1015.3
20190526163248 81 106 6.0 15.0 0.00 0.00 0.00 74 1015.4
20190526161755 81 177 5.0 17.0 0.00 0.00 0.00 76 1015.5
20190526160156 80 133 7.0 16.0 0.00 0.00 0.00 78 1015.5
20190526154655 80 138 5.0 14.0 0.00 0.00 0.00 79 1015.5
20190526153212 79 174 5.0 16.0 0.00 0.00 0.00 82 1015.6
20190526151729 79 150 7.0 22.0 0.00 0.00 0.00 82 1015.6
20190526150128 79 157 7.0 14.0 0.00 0.00 0.00 81 1015.5
20190526144803 78 123 6.0 13.0 0.00 0.00 0.00 84 1015.5
20190526143117 77 175 8.0 15.0 0.00 0.00 0.00 86 1015.5
20190526141640 76 162 5.0 12.0 0.00 0.00 0.00 89 1015.4
20190526140123 75 160 7.0 15.0 0.00 0.00 0.00 89 1015.2
20190526134629 75 149 7.0 15.0 0.00 0.00 0.00 90 1015.1
20190526133050 75 169 7.0 12.0 0.00 0.00 0.00 92 1015.1
20190526131632 74 196 6.0 13.0 0.00 0.00 0.00 92 1015.0
20190526130040 74 181 7.0 12.0 0.00 0.00 0.00 94 1014.9
20190526124555 73 180 3.0 10.0 0.00 0.00 0.00 95 1014.9
20190526123035 72 128 4.0 8.0 0.00 0.00 0.00 95 1014.7
20190526121547 72 156 3.0 8.0 0.00 0.00 0.00 95 1014.6
20190526120035 72 150 3.0 12.0 0.00 0.00 0.00 95 1014.3
20190526114536 72 163 4.0 9.0 0.00 0.00 0.00 95 1014.1
20190526113033 73 142 3.0 10.0 0.00 0.00 0.00 94 1014.0
20190526111530 73 163 5.0 12.0 0.00 0.00 0.00 94 1014.1
20190526110026 73 146 8.0 13.0 0.00 0.00 0.00 93 1013.9
20190526104613 73 173 5.0 12.0 0.00 0.00 0.00 93 1014.0
20190526103026 73 149 5.0 13.0 0.00 0.00 0.00 92 1013.8
20190526101528 73 171 5.0 14.0 0.00 0.00 0.00 92 1013.7
20190526100027 73 128 6.0 15.0 0.00 0.00 0.00 92 1013.8
20190526094508 73 154 6.0 10.0 0.00 0.00 0.00 92 1013.8
20190526093010 73 134 4.0 11.0 0.00 0.00 0.00 92 1013.6
20190526091529 73 149 6.0 14.0 0.00 0.00 0.00 92 1013.5
20190526090007 73 156 4.0 10.0 0.00 0.00 0.00 92 1013.4
20190526084513 73 134 7.0 12.0 0.00 0.00 0.00 92 1013.4
20190526083231 73 154 6.0 11.0 0.00 0.00 0.00 92 1013.6
20190526081658 73 166 4.0 9.0 0.00 0.00 0.00 92 1013.4
20190526080146 73 161 3.0 9.0 0.00 0.00 0.00 92 1013.5
20190526074801 73 145 6.0 10.0 0.00 0.00 0.00 92 1013.5
20190526073208 73 202 4.0 12.0 0.00 0.00 0.00 92 1013.6
20190526071655 73 183 5.0 12.0 0.00 0.00 0.00 92 1013.9
20190526070121 74 164 4.0 9.0 0.00 0.00 0.00 91 1014.1
20190526064616 74 175 5.0 9.0 0.00 0.00 0.00 91 1013.9
20190526063221 74 173 4.0 10.0 0.00 0.00 0.00 91 1013.9
20190526061712 74 147 4.0 13.0 0.00 0.00 0.00 91 1014.0
20190526060134 74 163 7.0 16.0 0.00 0.00 0.00 91 1014.0
20190526054711 74 135 6.0 13.0 0.00 0.00 0.00 91 1014.1
20190526053109 74 180 7.0 15.0 0.00 0.00 0.00 90 1014.1
20190526051621 74 138 5.0 9.0 0.00 0.00 0.00 90 1014.1